Wind_Speed
13 13 13 14 13 12 12 12 13 13 12 12 12 12 11 11 10 10 9 8 8 8 7 6 7 7 6 6 6 6 6 7 7 7 7 7 7 7 8 8 8 9 9 9 9 10 10 10 10
14 14 15 14 13 13 13 13 13 13 13 12 12 12 11 11 11 11 10 9 9 9 8 7 7 6 7 7 7 7 8 8 8 8 8 8 8 8 9 9 9 10 10 11 11 12 11 11 11
14 14 15 14 15 15 15 14 14 13 13 13 12 11 12 12 12 12 11 11 10 10 9 8 8 8 8 9 9 9 9 9 9 9 9 10 9 10 10 10 10 11 11 12 12 12 13 13 13
14 15 14 14 14 16 16 15 15 14 14 13 13 12 12 12 12 12 12 12 11 11 11 10 9 9 9 9 10 10 11 10 10 10 11 11 10 11 11 12 12 12 12 13 13 13 14 14 14
15 14 14 14 15 16 16 16 16 16 15 14 13 12 12 12 12 12 12 12 12 12 11 10 9 10 10 10 11 12 12 12 12 12 12 12 12 12 12 13 13 13 14 14 14 14 14 15 15
15 15 14 15 16 17 17 17 17 17 17 16 15 14 13 12 12 12 12 12 13 12 12 11 11 11 11 11 12 12 13 13 13 13 14 13 13 13 14 14 14 14 15 15 16 16 16 15 16
15 14 15 16 17 17 17 18 18 18 18 17 16 16 15 13 13 13 12 13 13 13 13 12 12 12 12 13 13 13 13 14 14 15 15 14 14 14 15 16 15 16 16 16 17 17 17 17 17
15 14 14 15 16 17 18 18 19 19 19 19 17 16 16 14 14 14 13 13 13 14 14 14 14 12 13 14 14 14 14 14 15 15 15 15 15 16 16 16 17 18 18 18 18 18 18 18 18
14 14 14 15 15 17 18 18 19 19 19 18 18 17 17 15 15 14 13 13 13 13 14 14 13 13 14 15 15 15 15 15 15 15 16 16 16 17 17 17 19 19 19 19 19 19 19 19 18
14 14 15 15 15 16 16 17 18 18 18 18 17 17 16 15 14 14 13 13 13 14 14 14 15 15 15 15 15 16 16 16 16 17 17 17 17 18 19 19 19 20 20 20 20 20 20 19 19
14 15 15 15 15 15 15 16 17 16 17 18 17 16 15 15 15 14 14 14 15 15 15 15 15 16 16 17 17 17 17 18 18 18 18 18 19 20 21 21 21 21 22 22 22 21 21 20 20
12 14 14 15 15 15 15 16 16 17 18 17 17 17 17 16 16 16 15 16 17 17 16 16 17 17 18 18 19 19 19 19 20 20 20 20 20 21 22 23 23 22 23 23 22 22 22 22 22
12 13 13 14 14 15 16 16 16 17 17 17 18 18 17 17 17 17 17 18 18 18 18 18 18 18 19 19 20 20 20 21 21 21 21 22 22 22 23 23 23 23 23 23 23 23 23 23 23
12 13 13 13 14 14 15 16 16 16 17 18 19 19 18 17 17 18 18 19 20 20 20 20 19 19 20 21 22 23 22 22 23 22 22 23 23 24 24 24 23 24 24 24 24 24 25 25 25
11 11 11 13 13 13 13 14 15 17 17 18 19 19 20 19 19 20 20 21 21 21 21 21 21 21 22 23 24 24 24 25 24 24 24 24 24 25 25 25 25 25 25 25 26 26 26 25 26
10 10 11 13 13 12 12 14 15 16 17 18 19 20 21 21 21 22 21 22 23 23 23 23 22 23 23 24 25 25 25 26 26 25 25 25 25 27 27 27 27 27 26 26 27 27 27 27 26
11 11 13 14 14 14 14 15 15 17 18 18 20 20 20 22 22 23 23 23 23 23 24 23 23 23 23 24 24 24 25 26 26 26 26 26 26 27 28 28 27 27 27 27 27 27 27 26 26
12 12 13 14 14 15 16 14 14 16 18 19 20 20 19 20 21 22 23 22 22 23 22 23 23 23 23 23 23 23 25 26 26 25 26 27 27 27 28 27 27 27 27 27 27 27 27 28 28
11 11 12 13 14 14 15 15 15 16 16 17 18 18 18 18 18 20 21 22 23 22 22 23 22 23 23 23 24 24 25 25 26 26 26 27 27 28 28 28 28 28 28 27 27 27 28 28 29
10 11 11 12 13 13 13 14 16 16 16 16 16 16 16 17 18 18 20 20 21 22 22 21 22 22 22 22 23 23 24 25 26 26 26 27 27 28 28 28 28 28 27 27 27 28 28 28 29
9 10 12 13 13 13 13 13 14 15 16 16 15 14 14 15 16 17 18 19 20 20 21 22 22 22 22 22 22 22 23 24 25 26 26 26 27 27 27 26 26 26 26 26 27 28 29 30 30
8 10 11 11 11 11 11 11 12 13 13 13 13 14 14 14 14 15 16 17 18 18 19 20 20 21 21 22 22 22 23 24 24 25 25 25 25 26 26 26 26 26 26 27 27 29 30 30 30
7 8 8 9 9 10 10 10 10 11 11 11 12 13 13 14 14 14 15 16 17 18 18 19 20 20 20 20 21 22 23 24 24 25 25 26 25 25 26 26 27 27 27 28 29 29 29 29 29
6 6 7 8 8 8 9 8 9 11 11 11 11 11 11 12 13 14 15 16 16 17 17 18 18 19 19 20 21 22 23 24 24 24 26 26 26 26 26 26 27 27 27 28 28 28 28 28 29
5 4 5 6 6 8 9 8 10 10 10 10 10 10 10 10 11 11 12 14 15 16 16 16 17 18 19 20 21 21 22 23 24 24 25 25 25 25 25 25 26 27 27 28 27 27 27 28 29
5 4 4 5 6 7 7 7 8 9 9 10 11 10 10 10 11 11 12 13 13 15 15 15 16 17 17 19 19 20 21 22 22 23 24 24 24 24 24 26 26 26 26 26 25 26 27 28 28
7 6 5 5 6 5 5 6 8 9 9 9 9 9 9 10 10 11 11 12 13 14 14 14 15 15 16 17 18 19 20 21 21 22 22 22 23 23 24 24 25 25 25 24 25 25 26 26 27
7 7 6 5 5 5 6 7 7 9 9 8 8 9 10 10 9 10 10 12 13 13 13 13 14 15 16 16 17 18 19 20 20 20 20 21 22 22 23 23 24 23 24 24 25 25 25 25 25
8 7 7 6 5 6 6 8 9 9 8 8 8 9 10 10 10 10 11 12 13 13 13 13 14 14 15 16 17 18 18 18 19 19 20 20 21 22 22 23 23 23 23 24 24 24 24 25 25
8 8 7 7 8 7 7 9 9 9 9 9 9 10 10 9 9 10 11 12 13 13 14 14 14 14 15 15 16 16 17 17 19 20 20 21 22 22 22 22 22 22 23 23 24 23 24 25 26
Wind_Direction
233 230 230 229 229 230 233 236 235 238 238 238 239 241 240 239 232 237 245 249 253 256 257 256 258 255 259 267 274 275 275 279 285 290 294 298 299 301 306 309 309 309 307 306 305 303 300 299 298
231 230 230 230 230 230 233 235 236 239 240 240 241 242 242 241 241 243 247 253 259 258 258 260 262 263 266 270 277 281 281 283 287 290 292 295 298 300 302 303 305 306 305 304 302 299 296 295 294
229 229 230 230 229 226 229 231 233 238 243 242 243 247 245 242 244 246 249 253 258 258 256 258 260 268 270 272 277 279 281 283 285 286 289 292 296 298 299 300 301 304 303 301 300 296 294 292 291
230 229 231 231 231 228 229 231 232 235 240 243 245 247 246 247 250 249 248 253 255 256 254 257 258 263 269 276 280 278 280 282 284 286 290 291 293 295 297 296 297 299 300 299 299 296 295 293 293
231 231 234 235 232 231 233 232 233 236 239 243 246 250 249 253 254 254 251 252 254 259 259 261 263 264 270 277 280 280 282 283 284 287 288 289 291 291 293 294 294 294 295 296 297 296 294 294 292
230 230 229 233 234 234 235 234 233 238 240 241 247 253 252 254 255 254 253 255 257 262 263 264 266 267 270 275 280 281 283 285 287 287 287 288 290 292 293 292 292 292 293 295 296 295 294 293 291
229 227 227 230 233 233 234 236 234 236 240 241 246 248 249 249 253 255 254 255 258 264 265 269 268 267 271 276 280 282 282 286 287 288 288 287 289 291 293 294 293 293 294 295 296 294 293 293 292
227 228 228 230 232 233 235 237 236 238 239 240 245 245 249 249 252 254 254 256 259 264 267 270 268 265 271 275 278 281 284 287 288 288 287 287 289 291 292 293 294 294 293 293 293 293 293 292 291
225 225 229 230 231 233 235 237 238 240 242 242 243 245 249 249 251 253 254 258 261 265 264 265 265 270 274 277 280 282 284 287 285 287 286 288 289 289 292 293 295 294 293 291 292 292 292 290 289
224 225 230 230 233 234 237 240 242 242 245 247 247 248 250 250 251 254 256 257 258 262 262 269 268 270 273 277 280 282 283 287 287 287 286 288 290 290 292 294 295 295 294 291 290 290 290 290 290
227 229 231 233 235 238 241 244 246 248 246 247 248 248 251 254 254 252 253 254 255 257 261 268 273 272 274 275 279 280 281 285 285 285 286 289 290 290 291 293 293 294 294 292 289 289 289 290 291
233 232 234 236 239 242 246 249 249 248 250 249 250 250 254 256 255 252 251 255 256 258 260 264 270 275 275 273 275 278 281 281 281 284 284 286 289 291 292 291 293 294 292 292 288 287 288 288 288
236 237 240 242 245 247 250 254 253 252 251 252 253 255 255 256 255 253 252 255 257 259 261 265 269 273 274 273 274 277 280 280 281 283 284 286 288 289 291 291 290 292 291 290 290 286 286 287 286
237 239 243 246 250 252 254 256 255 255 253 255 256 258 260 258 252 252 253 257 259 262 262 265 268 272 276 277 278 277 277 279 280 281 282 284 286 287 288 289 289 290 290 289 288 285 285 286 285
239 244 249 253 256 255 258 260 258 255 256 258 260 259 261 261 258 256 256 259 260 262 263 266 270 273 276 278 280 279 279 279 280 281 282 284 285 286 287 288 287 288 288 287 286 284 284 283 283
245 250 256 258 259 257 257 258 257 258 258 258 260 264 263 261 259 258 259 260 260 262 265 269 271 274 276 278 280 280 281 280 281 280 281 282 284 285 285 286 287 288 288 287 286 285 283 283 283
255 256 258 262 262 258 258 259 258 259 262 260 261 265 264 264 261 260 261 261 261 263 266 268 271 274 277 279 281 281 281 282 283 282 282 283 286 288 286 287 289 288 288 286 286 287 285 284 284
258 262 266 267 267 264 262 265 266 264 266 265 264 266 265 264 264 263 261 260 262 264 266 268 269 274 279 280 282 284 283 283 283 282 283 285 286 287 286 287 288 288 288 287 287 287 286 284 283
265 265 271 271 272 270 267 266 268 271 269 270 269 269 267 265 263 262 260 261 263 267 269 271 273 276 278 279 282 283 282 281 281 283 285 286 286 287 289 290 289 289 289 289 289 289 288 285 284
268 268 272 273 274 275 272 270 272 272 272 273 271 270 267 265 264 260 260 263 264 268 271 274 275 277 278 279 282 281 281 283 285 284 285 287 287 288 290 291 292 289 289 289 290 289 289 287 286
280 271 271 275 278 280 281 283 279 276 274 273 271 268 269 268 268 264 264 265 268 271 274 275 277 278 278 279 280 282 281 283 285 285 286 287 288 289 290 292 293 292 290 290 291 291 290 289 288
282 275 274 276 282 287 285 286 283 280 277 274 271 270 270 269 268 266 264 267 270 273 276 277 280 282 281 280 281 284 285 285 285 286 287 288 290 291 291 292 292 292 292 292 292 291 291 290 289
283 285 284 282 286 289 290 288 283 286 281 276 273 273 274 273 268 266 265 270 275 275 277 279 281 284 285 284 285 287 288 288 287 288 289 290 291 291 292 293 292 292 293 294 293 291 291 290 289
295 289 291 296 297 293 290 287 283 282 282 277 276 277 276 277 276 273 272 274 277 279 282 282 283 285 286 288 287 287 288 288 289 291 290 291 292 292 292 293 295 295 295 295 293 292 292 292 291
316 306 312 315 308 295 290 287 285 286 284 280 277 276 277 280 281 280 278 276 277 282 288 288 287 286 287 288 288 288 290 292 292 291 292 293 294 295 295 297 298 297 298 298 296 294 292 293 293
335 329 307 304 302 305 305 293 297 303 296 289 283 278 276 281 284 282 282 282 283 286 290 290 290 290 289 289 290 291 294 294 295 296 297 297 295 297 298 299 298 300 300 299 298 296 294 294 294
348 336 318 311 308 311 318 312 308 306 307 295 285 281 283 283 286 286 284 286 288 289 292 293 292 291 291 291 291 292 293 296 298 298 297 297 298 299 299 300 301 302 303 301 300 298 296 296 296
352 341 335 340 322 317 320 322 312 301 300 297 293 290 291 291 285 288 289 290 291 293 296 300 298 293 292 291 292 295 298 301 300 300 302 300 300 300 301 303 303 302 302 301 301 299 298 299 299
354 347 344 336 326 315 316 321 314 309 307 303 298 300 296 292 291 289 289 290 294 295 296 299 300 297 295 295 297 300 302 302 302 303 304 304 304 302 304 306 305 305 303 303 302 300 301 301 301
350 346 343 335 327 322 317 319 320 315 312 305 301 301 302 295 296 296 294 294 296 298 300 300 302 299 296 298 302 305 306 305 307 307 307 306 307 306 306 309 310 309 307 304 303 302 303 303 302
Height
5877 5878 5879 5881 5883 5885 5885 5885 5885 5886 5886 5886 5887 5887 5888 5889 5890 5892 5890 5889 5889 5889 5889 5889 5889 5889 5889 5889 5889 5889 5888 5888 5887 5886 5885 5885 5884 5883 5883 5882 5881 5881 5880 5879 5878 5878 5877 5876 5876
5874 5875 5877 5879 5881 5883 5883 5882 5883 5883 5883 5884 5884 5885 5885 5886 5887 5887 5887 5887 5887 5887 5887 5887 5887 5887 5887 5887 5887 5887 5886 5886 5885 5884 5883 5883 5882 5881 5881 5880 5880 5879 5878 5877 5876 5875 5875 5874 5873
5871 5872 5875 5876 5878 5880 5880 5880 5880 5880 5881 5881 5882 5882 5883 5884 5885 5885 5885 5885 5885 5885 5885 5885 5885 5885 5885 5885 5885 5885 5884 5884 5883 5882 5882 5881 5880 5879 5879 5878 5878 5877 5876 5875 5874 5873 5872 5871 5870
5868 5870 5872 5874 5875 5875 5876 5876 5877 5877 5878 5879 5880 5880 5881 5882 5882 5882 5883 5883 5883 5883 5882 5883 5882 5883 5883 5883 5883 5883 5882 5882 5881 5880 5879 5878 5878 5877 5877 5876 5875 5874 5873 5872 5871 5870 5869 5869 5868
5864 5867 5869 5871 5871 5872 5872 5873 5874 5874 5875 5876 5877 5878 5878 5879 5879 5880 5880 5880 5880 5881 5880 5880 5880 5881 5880 5880 5880 5880 5880 5879 5878 5877 5876 5876 5875 5875 5874 5873 5872 5871 5870 5869 5868 5867 5866 5865 5865
5862 5864 5867 5868 5868 5868 5869 5870 5871 5872 5873 5874 5874 5875 5876 5876 5877 5877 5877 5877 5878 5878 5878 5878 5878 5878 5878 5878 5878 5877 5877 5876 5875 5874 5874 5873 5873 5872 5871 5870 5869 5868 5867 5866 5865 5864 5863 5862 5861
5859 5861 5863 5864 5864 5865 5866 5867 5868 5869 5870 5871 5872 5873 5873 5873 5874 5874 5875 5875 5875 5875 5875 5875 5875 5875 5875 5875 5875 5874 5874 5873 5872 5871 5871 5870 5869 5869 5868 5866 5865 5864 5863 5862 5861 5860 5859 5858 5857
5855 5858 5859 5860 5860 5861 5862 5863 5864 5866 5867 5867 5868 5870 5870 5871 5871 5871 5872 5872 5872 5873 5873 5873 5872 5872 5872 5872 5872 5871 5870 5870 5869 5868 5868 5867 5866 5865 5864 5863 5862 5860 5859 5858 5857 5856 5855 5854 5853
5851 5855 5856 5857 5857 5858 5859 5860 5861 5862 5863 5864 5865 5867 5867 5868 5868 5869 5869 5869 5870 5870 5870 5870 5869 5869 5869 5869 5868 5868 5867 5866 5865 5864 5864 5863 5862 5861 5860 5859 5858 5857 5856 5854 5853 5852 5851 5850 5849
5849 5851 5852 5853 5854 5855 5855 5856 5857 5859 5860 5861 5863 5864 5864 5865 5866 5866 5866 5866 5867 5867 5867 5867 5866 5866 5866 5865 5865 5864 5864 5863 5861 5861 5860 5859 5858 5858 5856 5856 5854 5853 5852 5851 5849 5848 5847 5846 5845
5846 5848 5849 5850 5851 5852 5853 5854 5854 5856 5857 5858 5859 5861 5861 5862 5862 5863 5863 5863 5863 5864 5863 5863 5863 5863 5863 5862 5862 5861 5860 5859 5858 5857 5856 5855 5854 5853 5852 5851 5850 5849 5847 5846 5845 5844 5842 5841 5840
5844 5845 5846 5847 5848 5849 5850 5851 5852 5853 5854 5855 5856 5857 5857 5858 5859 5859 5860 5860 5860 5860 5860 5860 5860 5860 5859 5859 5858 5857 5856 5855 5854 5853 5852 5851 5850 5849 5848 5847 5846 5844 5843 5842 5840 5839 5838 5837 5835
5841 5843 5843 5844 5845 5846 5847 5848 5848 5849 5851 5852 5853 5853 5854 5854 5855 5855 5855 5856 5856 5856 5856 5857 5856 5856 5855 5855 5854 5853 5852 5851 5850 5849 5848 5847 5846 5845 5843 5842 5841 5839 5838 5837 5835 5834 5833 5832 5830
5839 5840 5841 5842 5843 5843 5844 5845 5846 5846 5847 5848 5849 5849 5850 5849 5850 5851 5851 5852 5852 5852 5852 5852 5852 5852 5851 5850 5850 5849 5848 5847 5845 5844 5843 5842 5841 5840 5838 5837 5836 5834 5833 5831 5830 5829 5827 5826 5825
5836 5838 5839 5839 5840 5841 5842 5843 5843 5843 5844 5844 5845 5846 5846 5846 5846 5847 5847 5848 5848 5848 5848 5848 5847 5847 5846 5846 5845 5843 5843 5841 5840 5839 5838 5837 5836 5834 5833 5832 5830 5829 5827 5825 5824 5823 5822 5820 5819
5835 5836 5838 5837 5837 5838 5840 5840 5840 5840 5840 5841 5841 5842 5842 5842 5842 5842 5842 5843 5843 5842 5843 5843 5842 5842 5841 5840 5839 5838 5837 5836 5835 5834 5832 5831 5830 5828 5827 5826 5824 5823 5821 5819 5818 5816 5815 5814 5812
5834 5835 5835 5835 5835 5835 5836 5836 5837 5836 5837 5837 5837 5838 5837 5837 5837 5837 5837 5837 5837 5837 5838 5838 5837 5836 5835 5835 5833 5832 5832 5830 5829 5828 5827 5825 5824 5822 5821 5820 5818 5816 5815 5813 5811 5810 5809 5807 5806
5832 5832 5832 5832 5831 5832 5832 5832 5833 5833 5833 5833 5833 5833 5832 5832 5832 5831 5831 5832 5833 5832 5832 5832 5832 5831 5830 5829 5828 5827 5826 5824 5823 5822 5821 5819 5818 5816 5815 5814 5812 5810 5808 5807 5805 5804 5802 5800 5799
5828 5829 5829 5829 5828 5828 5828 5829 5829 5829 5829 5828 5828 5828 5827 5827 5827 5827 5827 5827 5828 5828 5827 5827 5826 5826 5825 5824 5823 5822 5820 5819 5818 5816 5815 5813 5812 5810 5809 5807 5806 5804 5802 5800 5799 5797 5795 5794 5792
5825 5826 5826 5826 5825 5825 5825 5825 5825 5825 5824 5824 5824 5823 5823 5823 5823 5823 5823 5823 5823 5823 5822 5822 5821 5821 5819 5818 5818 5817 5815 5813 5812 5810 5809 5807 5806 5804 5803 5801 5799 5797 5795 5794 5792 5790 5789 5787 5785
5823 5823 5823 5822 5822 5822 5822 5823 5822 5820 5820 5820 5820 5819 5819 5819 5819 5819 5818 5819 5818 5818 5818 5817 5817 5816 5815 5814 5813 5811 5810 5808 5806 5805 5803 5801 5799 5798 5796 5794 5793 5790 5788 5787 5785 5783 5781 5779 5777
5820 5819 5819 5819 5820 5820 5820 5821 5819 5817 5816 5816 5816 5816 5815 5815 5815 5815 5815 5815 5815 5814 5813 5813 5812 5811 5810 5808 5807 5805 5804 5803 5801 5799 5797 5795 5793 5791 5789 5788 5786 5784 5782 5780 5778 5776 5774 5772 5770
5817 5816 5816 5816 5817 5818 5817 5818 5817 5814 5813 5813 5812 5812 5812 5812 5811 5811 5811 5811 5810 5810 5809 5807 5806 5805 5804 5803 5802 5800 5799 5797 5795 5793 5791 5789 5787 5785 5783 5781 5779 5777 5775 5773 5771 5769 5766 5764 5762
5815 5815 5815 5815 5815 5816 5815 5815 5814 5812 5811 5810 5810 5809 5809 5808 5808 5807 5807 5807 5806 5805 5804 5803 5802 5801 5799 5798 5797 5795 5794 5791 5790 5788 5786 5784 5781 5779 5777 5775 5773 5771 5769 5766 5763 5761 5759 5756 5754
5814 5814 5815 5815 5815 5815 5812 5811 5811 5808 5807 5807 5806 5806 5806 5805 5805 5804 5803 5803 5802 5801 5800 5799 5798 5796 5795 5793 5792 5790 5788 5786 5784 5782 5780 5778 5775 5773 5771 5769 5767 5764 5762 5759 5756 5754 5751 5749 5746
5813 5813 5814 5815 5814 5812 5809 5809 5808 5806 5804 5804 5803 5802 5803 5802 5802 5801 5800 5799 5799 5798 5796 5794 5793 5792 5790 5789 5787 5785 5784 5782 5779 5777 5775 5772 5770 5768 5765 5763 5761 5758 5755 5752 5749 5746 5744 5741 5739
5813 5812 5812 5811 5810 5809 5808 5807 5805 5803 5802 5801 5800 5800 5800 5799 5799 5798 5797 5796 5795 5794 5792 5790 5789 5788 5786 5784 5783 5781 5779 5777 5775 5772 5770 5767 5765 5762 5759 5757 5754 5751 5748 5745 5743 5740 5737 5734 5731
5813 5811 5810 5809 5809 5808 5807 5805 5804 5801 5800 5799 5798 5797 5797 5796 5796 5795 5794 5793 5792 5790 5788 5787 5785 5784 5782 5781 5779 5777 5775 5773 5770 5768 5765 5762 5760 5757 5754 5751 5748 5745 5742 5739 5736 5733 5730 5727 5724
5813 5811 5809 5808 5807 5806 5805 5806 5801 5799 5798 5797 5796 5795 5794 5793 5792 5792 5791 5790 5789 5787 5786 5784 5782 5781 5779 5777 5776 5774 5771 5769 5766 5763 5760 5758 5754 5751 5748 5745 5742 5739 5736 5733 5730 5727 5724 5721 5717
5812 5810 5808 5807 5805 5804 5802 5804 5798 5797 5796 5795 5794 5793 5791 5790 5789 5789 5788 5787 5786 5785 5783 5781 5780 5778 5776 5774 5772 5770 5767 5765 5762 5759 5756 5753 5749 5746 5743 5740 5736 5733 5730 5727 5724 5721 5717 5714 5710